User: anonymous   Login
Location: Oshawa
(43.9000°N, 78.8670°W)
Time: 15:12:00
(UTC-04:00)
Language:

CARTOSAT-1 - Orbit

View from above orbital plane
View from above orbital plane
View from above satellite
View from above satellite

Ground track
Ground track

The orbit data is extracted from the following two-line orbital elements,

1 28649U 05017A   15240.48348662  .00000877  00000-0  11341-3 0  9990
2 28649 097.9323 311.4462 0003056 062.1238 298.0290 14.83421217558327
Epoch (UTC): 28 August 2015 11:36:13
Eccentricity: 0.0003056
inclination: 97.9323°
perigee height: 616 km
apogee height: 620 km
right ascension of ascending node: 311.4462°
argument of perigee: 62.1238°
revolutions per day: 14.83421217
mean anomaly at epoch: 298.0290°
orbit number at epoch: 55832

The dashed part of the orbit path shows where the satellite is in the earth's shadow,  

DLR